KUIPER-00231

导读

KUIPER-00231(NORAD编号68580)是亚马逊原Kuiper(现更名Amazon Leo)低轨卫星互联网星座的组成卫星。该星座旨在为全球网络覆盖不足地区提供高速低延迟互联网服务,一期计划部署3232颗卫星,分布于近地轨道不同高度。这颗卫星随2025年6月ULA的Kuiper 2任务发射入轨,由Atlas V火箭从卡纳维拉尔角发射,属于星座加速组网阶段的发射成果,将支撑未来面向个人、企业及政府的宽带接入与云服务应用。

基本信息
目录编号:
68580
目录名称:
KUIPER-00231
国际标识:
2026-072H
轨道中心:
EARTH
卫星名称:
KUIPER-00231
卫星全名:
KUIPER-00231
卫星状态:
在轨 (已飞行70 天)
发射日期:
2026-04-04 UTC
国别 :
美国 (US)
星等 :
--
轨道信息
数据来源 国际轨道数据
星历时间: 2026-06-11T17:37:39+0800
1天前
查看轨道信息
半长轴: 6830.76km
偏心率: 0.0003231
轨道倾角: 51.873°
近地点辐角 15.582°
升交点赤经 204.662°
平近点角 344.527°
近地点: 450.415km
远地点: 454.831km
周期: 93.640分钟
每日圈数: 15.377979
详细信息
使用方式:
暂无
2D轨道图
3D轨道图
轨道高度分析图
轨道倾角分析图
轨道综合分析图
查看轨道综合分析图